| time (UTC) | temp F | wind direction | speed MPH | gust MPH | rain 1hr in | rain 24hr in | rain mn in | humidity % | barometer mb |
| 20260504010533 | 69 | 253 | 0.0 | 0.0 | 0.00 | 0.00 | 0.00 | 53 | 1019.0 |
| 20260504005022 | 70 | 217 | 1.0 | 0.0 | 0.00 | 0.00 | 0.00 | 51 | 1019.0 |
| 20260504003520 | 71 | 269 | 2.0 | 0.0 | 0.00 | 0.00 | 0.00 | 50 | 1018.7 |
| 20260504002041 | 72 | 259 | 1.0 | 0.0 | 0.00 | 0.00 | 0.00 | 48 | 1018.7 |
| 20260504000519 | 74 | 268 | 1.0 | 0.0 | 0.00 | 0.00 | 0.00 | 47 | 1018.6 |
| 20260503235021 | 75 | 178 | 0.0 | 0.0 | 0.00 | 0.00 | 0.00 | 39 | 1018.5 |
| 20260503233515 | 76 | 178 | 0.0 | 0.0 | 0.00 | 0.00 | 0.00 | 37 | 1018.4 |
| 20260503232021 | 77 | 216 | 0.0 | 0.0 | 0.00 | 0.00 | 0.00 | 37 | 1018.6 |
| 20260503230534 | 78 | 244 | 1.0 | 0.0 | 0.00 | 0.00 | 0.00 | 34 | 1018.6 |
| 20260503225028 | 80 | 117 | 0.0 | 0.0 | 0.00 | 0.00 | 0.00 | 35 | 1018.5 |
| 20260503223524 | 81 | 234 | 0.0 | 0.0 | 0.00 | 0.00 | 0.00 | 33 | 1018.6 |
| 20260503222028 | 82 | 252 | 1.0 | 0.0 | 0.00 | 0.00 | 0.00 | 31 | 1018.7 |
| 20260503220519 | 82 | 194 | 0.0 | 0.0 | 0.00 | 0.00 | 0.00 | 32 | 1018.7 |
| 20260503215014 | 83 | 117 | 1.0 | 0.0 | 0.00 | 0.00 | 0.00 | 33 | 1018.7 |
| 20260503213517 | 82 | 355 | 1.0 | 0.0 | 0.00 | 0.00 | 0.00 | 33 | 1018.8 |
| 20260503212015 | 82 | 234 | 1.0 | 0.0 | 0.00 | 0.00 | 0.00 | 33 | 1019.0 |
| 20260503210510 | 82 | 249 | 0.0 | 0.0 | 0.00 | 0.00 | 0.00 | 30 | 1019.2 |
| 20260503205033 | 82 | 274 | 0.0 | 0.0 | 0.00 | 0.00 | 0.00 | 33 | 1019.3 |
| 20260503203530 | 81 | 34 | 1.0 | 0.0 | 0.00 | 0.00 | 0.00 | 34 | 1019.7 |
| 20260503202021 | 81 | 147 | 1.0 | 0.0 | 0.00 | 0.00 | 0.00 | 35 | 1019.8 |
| 20260503200517 | 81 | 344 | 1.0 | 0.0 | 0.00 | 0.00 | 0.00 | 33 | 1020.2 |
| 20260503195016 | 81 | 233 | 1.0 | 0.0 | 0.00 | 0.00 | 0.00 | 33 | 1020.3 |
| 20260503193549 | 81 | 337 | 1.0 | 0.0 | 0.00 | 0.00 | 0.00 | 36 | 1020.4 |
| 20260503192029 | 80 | 182 | 1.0 | 0.0 | 0.00 | 0.00 | 0.00 | 34 | 1020.7 |
| 20260503190522 | 79 | 220 | 1.0 | 0.0 | 0.00 | 0.00 | 0.00 | 32 | 1021.0 |
| 20260503185042 | 79 | 163 | 1.0 | 0.0 | 0.00 | 0.00 | 0.00 | 35 | 1021.3 |
| 20260503183522 | 79 | 55 | 1.0 | 0.0 | 0.00 | 0.00 | 0.00 | 36 | 1021.4 |
| 20260503182022 | 78 | 317 | 1.0 | 0.0 | 0.00 | 0.00 | 0.00 | 38 | 1021.8 |
| 20260503180522 | 78 | 144 | 1.0 | 0.0 | 0.00 | 0.00 | 0.00 | 33 | 1022.1 |
| 20260503175033 | 78 | 288 | 1.0 | 0.0 | 0.00 | 0.00 | 0.00 | 35 | 1022.2 |
| 20260503173525 | 78 | 350 | 1.0 | 0.0 | 0.00 | 0.00 | 0.00 | 37 | 1022.3 |
| 20260503172022 | 77 | 15 | 1.0 | 0.0 | 0.00 | 0.00 | 0.00 | 38 | 1022.4 |
| 20260503170535 | 77 | 200 | 1.0 | 0.0 | 0.00 | 0.00 | 0.00 | 38 | 1022.5 |
| 20260503150525 | 72 | 42 | 0.0 | 0.0 | 0.00 | 0.00 | 0.00 | 47 | 1023.4 |
| 20260503130558 | 55 | 346 | 0.0 | 0.0 | 0.00 | 0.00 | 0.00 | 70 | 1022.6 |
| 20260503110527 | 48 | 346 | 0.0 | 0.0 | 0.00 | 0.00 | 0.00 | 72 | 1021.8 |
| 20260503090513 | 49 | 346 | 0.0 | 0.0 | 0.00 | 0.00 | 0.00 | 70 | 1020.8 |
| 20260503080545 | 50 | 346 | 0.0 | 0.0 | 0.00 | 0.00 | 0.00 | 70 | 1020.6 |
| 20260503072035 | 51 | 346 | 0.0 | 0.0 | 0.00 | 0.00 | 0.00 | 70 | 1020.3 |
| 20260503070530 | 51 | 346 | 0.0 | 0.0 | 0.00 | 0.00 | 0.00 | 70 | 1020.2 |
| 20260503055015 | 53 | 346 | 0.0 | 0.0 | 0.00 | 0.00 | 0.43 | 69 | 1020.0 |
| 20260503053510 | 54 | 346 | 0.0 | 0.0 | 0.00 | 0.00 | 0.43 | 68 | 1019.8 |
| 20260503052016 | 54 | 346 | 0.0 | 0.0 | 0.00 | 0.00 | 0.43 | 68 | 1019.8 |
| 20260503050526 | 55 | 346 | 0.0 | 0.0 | 0.00 | 0.00 | 0.43 | 68 | 1019.7 |
| 20260503045027 | 56 | 346 | 0.0 | 0.0 | 0.00 | 0.00 | 0.43 | 67 | 1019.7 |
| 20260503043539 | 56 | 346 | 0.0 | 0.0 | 0.00 | 0.00 | 0.43 | 66 | 1019.7 |
| 20260503042021 | 57 | 346 | 0.0 | 0.0 | 0.00 | 0.00 | 0.43 | 65 | 1019.7 |
| 20260503040521 | 57 | 346 | 0.0 | 0.0 | 0.00 | 0.00 | 0.43 | 64 | 1019.6 |
| 20260503035029 | 58 | 346 | 0.0 | 0.0 | 0.00 | 0.00 | 0.43 | 63 | 1019.4 |
| 20260503033530 | 58 | 346 | 0.0 | 0.0 | 0.00 | 0.00 | 0.43 | 63 | 1019.2 |